Time,TemperatureF,DewpointF,PressureIn,WindDirection,WindDirectionDegrees,WindSpeedMPH,WindSpeedGustMPH,Humidity,HourlyPrecipIn,Conditions,Clouds,dailyrainin,SoftwareType,DateUTC
2013-12-02 00:08:00,36.7,15.2,30.08,North,0,0.0,0.0,41,0.00,CLR,,0.00,WeatherDisplay:10.37,2013-12-02 05:08:00,
2013-12-02 00:18:00,36.5,15.0,30.08,North,0,0.0,0.0,41,0.00,CLR,,0.00,WeatherDisplay:10.37,2013-12-02 05:18:00,
2013-12-02 00:28:00,36.5,15.0,30.08,North,0,0.0,0.0,41,0.00,CLR,,0.00,WeatherDisplay:10.37,2013-12-02 05:28:00,
2013-12-02 00:38:00,36.3,15.4,30.08,North,0,0.0,0.0,42,0.00,CLR,,0.00,WeatherDisplay:10.37,2013-12-02 05:38:00,
2013-12-02 00:48:00,36.3,15.4,30.08,North,0,0.0,0.0,42,0.00,CLR,,0.00,WeatherDisplay:10.37,2013-12-02 05:48:00,
2013-12-02 00:58:00,36.3,15.4,30.08,North,0,0.0,0.0,42,0.00,CLR,,0.00,WeatherDisplay:10.37,2013-12-02 05:58:00,
2013-12-02 01:08:00,36.3,15.4,30.08,North,0,0.0,0.0,42,0.00,CLR,,0.00,WeatherDisplay:10.37,2013-12-02 06:08:00,
2013-12-02 01:18:00,36.3,15.9,30.08,North,0,0.0,0.0,43,0.00,CLR,,0.00,WeatherDisplay:10.37,2013-12-02 06:18:00,
2013-12-02 01:28:00,36.3,15.9,30.08,North,0,0.0,0.0,43,0.00,CLR,,0.00,WeatherDisplay:10.37,2013-12-02 06:28:00,
2013-12-02 01:38:00,36.3,16.5,30.05,North,0,0.0,0.0,44,0.00,CLR,,0.00,WeatherDisplay:10.37,2013-12-02 06:38:00,
2013-12-02 01:48:00,36.1,16.3,30.05,North,0,0.0,0.0,44,0.00,CLR,,0.00,WeatherDisplay:10.37,2013-12-02 06:48:00,
2013-12-02 01:58:00,36.1,16.3,30.05,North,0,0.0,0.0,44,0.00,CLR,,0.00,WeatherDisplay:10.37,2013-12-02 06:58:00,
2013-12-02 02:08:00,36.0,16.2,30.05,North,0,0.0,0.0,44,0.00,CLR,,0.00,WeatherDisplay:10.37,2013-12-02 07:08:00,
2013-12-02 02:18:00,36.0,16.7,30.05,North,0,0.0,0.0,45,0.00,CLR,,0.00,WeatherDisplay:10.37,2013-12-02 07:18:00,
2013-12-02 02:28:00,36.0,16.7,30.05,North,0,0.0,0.0,45,0.00,CLR,,0.00,WeatherDisplay:10.37,2013-12-02 07:28:00,
2013-12-02 02:38:00,36.0,17.2,30.05,West,271,0.0,3.0,46,0.00,CLR,,0.00,WeatherDisplay:10.37,2013-12-02 07:38:00,
2013-12-02 02:48:00,35.8,17.0,30.05,West,275,0.0,2.0,46,0.00,CLR,,0.00,WeatherDisplay:10.37,2013-12-02 07:48:00,
2013-12-02 02:58:00,36.0,17.7,30.05,West,275,0.0,0.0,47,0.00,CLR,,0.00,WeatherDisplay:10.37,2013-12-02 07:58:00,
2013-12-02 03:08:00,36.1,17.8,30.05,West,275,0.0,0.0,47,0.00,CLR,,0.00,WeatherDisplay:10.37,2013-12-02 08:08:00,
2013-12-02 03:18:00,36.5,18.6,30.05,SW,236,0.0,4.0,48,0.00,CLR,,0.00,WeatherDisplay:10.37,2013-12-02 08:18:00,
2013-12-02 03:28:00,36.5,18.6,30.05,WSW,256,0.0,4.0,48,0.00,CLR,,0.00,WeatherDisplay:10.37,2013-12-02 08:28:00,
2013-12-02 03:38:00,36.3,18.5,30.05,WSW,256,0.0,0.0,48,0.00,CLR,,0.00,WeatherDisplay:10.37,2013-12-02 08:38:00,
2013-12-02 03:48:00,36.3,18.5,30.05,WSW,256,0.0,0.0,48,0.00,CLR,,0.00,WeatherDisplay:10.37,2013-12-02 08:48:00,
2013-12-02 03:58:00,36.1,18.8,30.02,WSW,256,0.0,0.0,49,0.00,CLR,,0.00,WeatherDisplay:10.37,2013-12-02 08:58:00,
2013-12-02 04:08:00,36.1,18.8,30.02,WSW,256,0.0,0.0,49,0.00,CLR,,0.00,WeatherDisplay:10.37,2013-12-02 09:08:00,
2013-12-02 04:18:00,36.0,18.6,30.02,WSW,256,0.0,0.0,49,0.00,CLR,,0.00,WeatherDisplay:10.37,2013-12-02 09:18:00,
2013-12-02 04:28:00,36.0,18.6,30.05,WSW,256,0.0,0.0,49,0.00,CLR,,0.00,WeatherDisplay:10.37,2013-12-02 09:28:00,
2013-12-02 04:38:00,35.8,18.5,30.05,WSW,256,0.0,0.0,49,0.00,CLR,,0.00,WeatherDisplay:10.37,2013-12-02 09:38:00,
2013-12-02 04:48:00,35.8,18.9,30.05,WSW,256,0.0,0.0,50,0.00,CLR,,0.00,WeatherDisplay:10.37,2013-12-02 09:48:00,
2013-12-02 04:58:00,35.8,18.9,30.02,WSW,256,0.0,0.0,50,0.00,CLR,,0.00,WeatherDisplay:10.37,2013-12-02 09:58:00,
2013-12-02 05:08:00,35.8,18.9,30.02,WSW,256,0.0,0.0,50,0.00,CLR,,0.00,WeatherDisplay:10.37,2013-12-02 10:08:00,
2013-12-02 05:18:00,35.6,18.8,30.02,WSW,256,0.0,0.0,50,0.00,CLR,,0.00,WeatherDisplay:10.37,2013-12-02 10:18:00,
2013-12-02 05:28:00,35.4,18.6,30.02,WSW,256,0.0,0.0,50,0.00,CLR,,0.00,WeatherDisplay:10.37,2013-12-02 10:28:00,
2013-12-02 05:38:00,35.4,18.6,30.02,WSW,256,0.0,0.0,50,0.00,CLR,,0.00,WeatherDisplay:10.37,2013-12-02 10:38:00,
2013-12-02 05:48:00,35.2,18.9,30.02,WSW,256,0.0,0.0,51,0.00,CLR,,0.00,WeatherDisplay:10.37,2013-12-02 10:48:00,
2013-12-02 05:58:00,35.2,18.9,30.02,WSW,256,0.0,0.0,51,0.00,CLR,,0.00,WeatherDisplay:10.37,2013-12-02 10:58:00,
2013-12-02 06:08:00,35.2,18.9,30.02,WSW,256,0.0,0.0,51,0.00,CLR,,0.00,WeatherDisplay:10.37,2013-12-02 11:08:00,
2013-12-02 06:18:00,35.2,18.9,30.02,WSW,256,0.0,0.0,51,0.00,CLR,,0.00,WeatherDisplay:10.37,2013-12-02 11:18:00,
2013-12-02 06:28:00,35.2,18.9,30.02,WSW,256,0.0,0.0,51,0.00,CLR,,0.00,WeatherDisplay:10.37,2013-12-02 11:28:00,
2013-12-02 06:38:00,35.1,18.7,30.02,WSW,256,0.0,0.0,51,0.00,CLR,,0.00,WeatherDisplay:10.37,2013-12-02 11:38:00,
2013-12-02 06:48:00,35.1,18.7,30.02,WSW,256,0.0,0.0,51,0.00,CLR,,0.00,WeatherDisplay:10.37,2013-12-02 11:48:00,
2013-12-02 06:58:00,35.1,19.2,30.02,WSW,256,0.0,0.0,52,0.00,CLR,,0.00,WeatherDisplay:10.37,2013-12-02 11:58:00,
2013-12-02 07:08:00,35.1,19.2,30.02,WSW,256,0.0,0.0,52,0.00,CLR,,0.00,WeatherDisplay:10.37,2013-12-02 12:08:00,
2013-12-02 07:18:00,35.1,19.2,30.02,WSW,256,0.0,0.0,52,0.00,CLR,,0.00,WeatherDisplay:10.37,2013-12-02 12:18:00,
2013-12-02 07:28:00,35.1,19.2,30.02,WSW,256,0.0,0.0,52,0.00,CLR,,0.00,WeatherDisplay:10.37,2013-12-02 12:28:00,
2013-12-02 07:38:00,35.1,19.2,30.02,North,4,0.0,0.0,52,0.00,CLR,,0.00,WeatherDisplay:10.37,2013-12-02 12:38:00,
2013-12-02 07:48:00,35.2,19.4,30.02,NNE,27,0.0,0.0,52,0.00,CLR,,0.00,WeatherDisplay:10.37,2013-12-02 12:48:00,
2013-12-02 07:58:00,35.2,19.8,30.02,NNE,27,0.0,0.0,53,0.00,CLR,,0.00,WeatherDisplay:10.37,2013-12-02 12:58:00,
2013-12-02 08:08:00,35.6,20.1,30.02,NNE,27,0.0,0.0,53,0.00,CLR,,0.00,WeatherDisplay:10.37,2013-12-02 13:08:00,
2013-12-02 08:18:00,35.8,20.3,30.02,NNE,27,0.0,0.0,53,0.00,CLR,,0.00,WeatherDisplay:10.37,2013-12-02 13:18:00,
2013-12-02 08:28:00,36.0,20.5,30.05,NNE,27,0.0,0.0,53,0.00,CLR,,0.00,WeatherDisplay:10.37,2013-12-02 13:28:00,
2013-12-02 08:38:00,36.0,20.5,30.05,NNE,27,0.0,0.0,53,0.00,CLR,,0.00,WeatherDisplay:10.37,2013-12-02 13:38:00,
2013-12-02 08:48:00,36.3,20.8,30.05,NNE,27,0.0,0.0,53,0.00,CLR,,0.00,WeatherDisplay:10.37,2013-12-02 13:48:00,
2013-12-02 08:58:00,36.5,21.0,30.05,NNE,27,0.0,0.0,53,0.00,CLR,,0.00,WeatherDisplay:10.37,2013-12-02 13:58:00,
2013-12-02 09:08:00,36.7,21.1,30.05,NNE,27,0.0,0.0,53,0.00,CLR,,0.00,WeatherDisplay:10.37,2013-12-02 14:08:00,
2013-12-02 09:18:00,36.9,21.3,30.05,NNE,27,0.0,0.0,53,0.00,CLR,,0.00,WeatherDisplay:10.37,2013-12-02 14:18:00,
2013-12-02 09:28:00,37.0,21.5,30.05,NNE,27,0.0,0.0,53,0.00,CLR,,0.00,WeatherDisplay:10.37,2013-12-02 14:28:00,
2013-12-02 09:38:00,37.2,21.6,30.05,North,10,0.0,0.0,53,0.00,CLR,,0.00,WeatherDisplay:10.37,2013-12-02 14:38:00,
2013-12-02 09:48:00,37.4,21.8,30.05,NNW,328,0.0,0.0,53,0.00,CLR,,0.00,WeatherDisplay:10.37,2013-12-02 14:48:00,
2013-12-02 09:58:00,37.6,22.0,30.05,NNW,328,0.0,0.0,53,0.00,CLR,,0.00,WeatherDisplay:10.37,2013-12-02 14:58:00,
2013-12-02 10:08:00,37.8,22.1,30.02,NNW,328,0.0,0.0,53,0.00,CLR,,0.00,WeatherDisplay:10.37,2013-12-02 15:08:00,
2013-12-02 10:18:00,37.9,22.2,30.02,NNW,328,0.0,0.0,53,0.00,CLR,,0.00,WeatherDisplay:10.37,2013-12-02 15:18:00,
2013-12-02 10:28:00,38.0,22.4,30.02,NW,314,0.0,0.0,53,0.00,CLR,,0.00,WeatherDisplay:10.37,2013-12-02 15:28:00,
2013-12-02 10:38:00,38.1,22.5,30.02,SW,235,0.0,0.0,53,0.00,CLR,,0.00,WeatherDisplay:10.37,2013-12-02 15:38:00,
2013-12-02 10:48:00,38.5,22.8,30.02,West,281,0.0,0.0,53,0.00,CLR,,0.00,WeatherDisplay:10.37,2013-12-02 15:48:00,
2013-12-02 10:58:00,38.8,23.1,30.02,West,281,1.0,3.0,53,0.00,CLR,,0.00,WeatherDisplay:10.37,2013-12-02 15:58:00,
2013-12-02 11:08:00,39.0,22.9,30.02,West,276,3.0,6.0,52,0.00,CLR,,0.00,WeatherDisplay:10.37,2013-12-02 16:08:00,
2013-12-02 11:18:00,39.4,22.7,30.02,NW,310,0.0,4.0,51,0.00,CLR,,0.00,WeatherDisplay:10.37,2013-12-02 16:18:00,
2013-12-02 11:28:00,39.7,23.1,30.02,NNW,340,3.0,5.0,51,0.00,CLR,,0.00,WeatherDisplay:10.37,2013-12-02 16:28:00,
2013-12-02 11:38:00,39.9,22.8,30.02,NNW,328,3.0,4.0,50,0.00,CLR,,0.00,WeatherDisplay:10.37,2013-12-02 16:38:00,
2013-12-02 11:48:00,40.0,22.8,30.02,NNW,328,2.0,5.0,50,0.00,CLR,,0.00,WeatherDisplay:10.37,2013-12-02 16:48:00,
2013-12-02 11:58:00,40.3,22.6,29.99,NW,310,2.0,4.0,49,0.00,CLR,,0.00,WeatherDisplay:10.37,2013-12-02 16:58:00,
2013-12-02 12:08:00,40.5,22.8,29.99,NW,325,2.0,4.0,49,0.00,CLR,,0.00,WeatherDisplay:10.37,2013-12-02 17:08:00,
2013-12-02 12:18:00,40.8,22.6,29.99,NW,321,0.0,4.0,48,0.00,CLR,,0.00,WeatherDisplay:10.37,2013-12-02 17:18:00,
2013-12-02 12:28:00,41.0,22.3,29.99,NW,314,1.0,3.0,47,0.00,CLR,,0.00,WeatherDisplay:10.37,2013-12-02 17:28:00,
2013-12-02 12:38:00,41.5,22.3,29.96,NW,319,2.0,4.0,46,0.00,CLR,,0.00,WeatherDisplay:10.37,2013-12-02 17:38:00,
2013-12-02 12:48:00,41.9,22.1,29.96,NNW,332,0.0,3.0,45,0.00,CLR,,0.00,WeatherDisplay:10.37,2013-12-02 17:48:00,
2013-12-02 12:58:00,42.3,20.2,29.96,NW,313,3.0,5.0,41,0.00,CLR,,0.00,WeatherDisplay:10.37,2013-12-02 17:58:00,
2013-12-02 13:08:00,42.8,20.7,29.96,NW,320,2.0,5.0,41,0.00,CLR,,0.00,WeatherDisplay:10.37,2013-12-02 18:08:00,
2013-12-02 13:18:00,43.3,20.0,29.96,NW,326,2.0,5.0,39,0.00,CLR,,0.00,WeatherDisplay:10.37,2013-12-02 18:18:00,
2013-12-02 13:28:00,43.5,20.2,29.96,NW,319,1.0,4.0,39,0.00,CLR,,0.00,WeatherDisplay:10.37,2013-12-02 18:28:00,
2013-12-02 13:38:00,43.9,20.5,29.96,NW,323,2.0,4.0,39,0.00,CLR,,0.00,WeatherDisplay:10.37,2013-12-02 18:38:00,
2013-12-02 13:48:00,44.1,20.7,29.96,NW,322,0.0,3.0,39,0.00,CLR,,0.00,WeatherDisplay:10.37,2013-12-02 18:48:00,
2013-12-02 13:58:00,44.4,21.0,29.96,West,280,0.0,4.0,39,0.00,CLR,,0.00,WeatherDisplay:10.37,2013-12-02 18:58:00,
2013-12-02 14:08:00,44.6,21.1,29.96,West,260,0.0,2.0,39,0.00,CLR,,0.00,WeatherDisplay:10.37,2013-12-02 19:08:00,
2013-12-02 14:18:00,44.8,20.7,29.96,West,260,0.0,0.0,38,0.00,CLR,,0.00,WeatherDisplay:10.37,2013-12-02 19:18:00,
2013-12-02 14:28:00,44.8,20.7,29.96,West,275,0.0,4.0,38,0.00,CLR,,0.00,WeatherDisplay:10.37,2013-12-02 19:28:00,
2013-12-02 14:38:00,44.8,20.7,29.96,SW,234,0.0,3.0,38,0.00,CLR,,0.00,WeatherDisplay:10.37,2013-12-02 19:38:00,
2013-12-02 14:48:00,44.8,20.7,29.96,West,261,1.0,4.0,38,0.00,CLR,,0.00,WeatherDisplay:10.37,2013-12-02 19:48:00,
2013-12-02 14:58:00,44.8,20.7,29.96,West,272,2.0,4.0,38,0.00,CLR,,0.00,WeatherDisplay:10.37,2013-12-02 19:58:00,
2013-12-02 15:08:00,44.8,20.7,29.96,SSE,149,1.0,3.0,38,0.00,CLR,,0.00,WeatherDisplay:10.37,2013-12-02 20:08:00,
2013-12-02 15:18:00,45.0,20.2,29.96,ESE,105,6.0,8.0,37,0.00,CLR,,0.00,WeatherDisplay:10.37,2013-12-02 20:18:00,
2013-12-02 15:28:00,44.8,20.1,29.96,East,86,6.0,8.0,37,0.00,CLR,,0.00,WeatherDisplay:10.37,2013-12-02 20:28:00,
2013-12-02 15:38:00,44.7,20.0,29.96,East,94,5.0,8.0,37,0.00,CLR,,0.00,WeatherDisplay:10.37,2013-12-02 20:38:00,
2013-12-02 15:48:00,44.4,20.4,29.96,ESE,104,3.0,6.0,38,0.00,CLR,,0.00,WeatherDisplay:10.37,2013-12-02 20:48:00,
2013-12-02 15:58:00,44.1,20.1,29.96,East,87,5.0,8.0,38,0.00,CLR,,0.00,WeatherDisplay:10.37,2013-12-02 20:58:00,
2013-12-02 16:08:00,43.9,19.9,29.96,East,93,3.0,9.0,38,0.00,CLR,,0.00,WeatherDisplay:10.37,2013-12-02 21:08:00,
2013-12-02 16:18:00,43.7,19.7,29.96,East,87,6.0,8.0,38,0.00,CLR,,0.00,WeatherDisplay:10.37,2013-12-02 21:18:00,
2013-12-02 16:28:00,43.7,19.7,29.96,East,88,2.0,6.0,38,0.00,CLR,,0.00,WeatherDisplay:10.37,2013-12-02 21:28:00,
2013-12-02 16:38:00,43.7,19.7,29.96,ESE,106,5.0,6.0,38,0.00,CLR,,0.00,WeatherDisplay:10.37,2013-12-02 21:38:00,
2013-12-02 16:48:00,43.7,19.7,29.96,ESE,104,3.0,6.0,38,0.00,CLR,,0.00,WeatherDisplay:10.37,2013-12-02 21:48:00,
2013-12-02 16:58:00,43.7,19.7,29.96,East,93,3.0,5.0,38,0.00,CLR,,0.00,WeatherDisplay:10.37,2013-12-02 21:58:00,
2013-12-02 17:08:00,43.5,19.6,29.96,East,93,0.0,3.0,38,0.00,CLR,,0.00,WeatherDisplay:10.37,2013-12-02 22:08:00,
2013-12-02 17:18:00,43.2,19.2,29.96,East,91,0.0,0.0,38,0.00,CLR,,0.00,WeatherDisplay:10.37,2013-12-02 22:18:00,
2013-12-02 17:28:00,42.4,19.2,29.96,East,91,0.0,0.0,39,0.00,CLR,,0.00,WeatherDisplay:10.37,2013-12-02 22:28:00,
2013-12-02 17:38:00,42.3,19.6,29.96,ENE,73,0.0,0.0,40,0.00,CLR,,0.00,WeatherDisplay:10.37,2013-12-02 22:38:00,
2013-12-02 17:48:00,41.7,19.1,29.96,ENE,75,0.0,0.0,40,0.00,CLR,,0.00,WeatherDisplay:10.37,2013-12-02 22:48:00,
2013-12-02 17:58:00,41.3,18.7,29.96,ENE,75,0.0,0.0,40,0.00,CLR,,0.00,WeatherDisplay:10.37,2013-12-02 22:58:00,
2013-12-02 18:08:00,41.0,19.1,29.96,ENE,75,0.0,0.0,41,0.00,CLR,,0.00,WeatherDisplay:10.37,2013-12-02 23:08:00,
2013-12-02 18:18:00,40.8,19.5,29.96,ENE,75,0.0,0.0,42,0.00,CLR,,0.00,WeatherDisplay:10.37,2013-12-02 23:18:00,
2013-12-02 18:28:00,40.8,20.0,29.96,ENE,75,0.0,0.0,43,0.00,CLR,,0.00,WeatherDisplay:10.37,2013-12-02 23:28:00,
2013-12-02 18:38:00,40.6,19.9,29.96,ENE,75,0.0,0.0,43,0.00,CLR,,0.00,WeatherDisplay:10.37,2013-12-02 23:38:00,
2013-12-02 18:48:00,40.5,19.7,29.96,ENE,75,0.0,0.0,43,0.00,CLR,,0.00,WeatherDisplay:10.37,2013-12-02 23:48:00,
2013-12-02 18:58:00,40.1,19.9,29.96,East,88,2.0,4.0,44,0.00,CLR,,0.00,WeatherDisplay:10.37,2013-12-02 23:58:00,
2013-12-02 19:08:00,40.3,20.6,29.96,ESE,110,1.0,3.0,45,0.00,CLR,,0.00,WeatherDisplay:10.37,2013-12-03 00:08:00,
2013-12-02 19:18:00,40.3,20.6,29.96,ESE,110,0.0,3.0,45,0.00,CLR,,0.00,WeatherDisplay:10.37,2013-12-03 00:18:00,
2013-12-02 19:28:00,40.1,20.4,29.96,ESE,110,0.0,3.0,45,0.00,CLR,,0.00,WeatherDisplay:10.37,2013-12-03 00:28:00,
2013-12-02 19:38:00,39.7,20.6,29.96,ESE,110,1.0,4.0,46,0.00,CLR,,0.00,WeatherDisplay:10.37,2013-12-03 00:38:00,
2013-12-02 19:48:00,39.7,21.1,29.96,ESE,110,1.0,4.0,47,0.00,CLR,,0.00,WeatherDisplay:10.37,2013-12-03 00:48:00,
2013-12-02 19:58:00,39.7,21.1,29.96,ESE,110,0.0,0.0,47,0.00,CLR,,0.00,WeatherDisplay:10.37,2013-12-03 00:58:00,
2013-12-02 20:08:00,39.4,21.3,29.93,ESE,110,0.0,0.0,48,0.00,CLR,,0.00,WeatherDisplay:10.37,2013-12-03 01:08:00,
2013-12-02 20:18:00,39.0,21.0,29.93,ESE,109,3.0,4.0,48,0.00,CLR,,0.00,WeatherDisplay:10.37,2013-12-03 01:18:00,
2013-12-02 20:28:00,38.6,21.0,29.96,ESE,102,2.0,5.0,49,0.00,CLR,,0.00,WeatherDisplay:10.37,2013-12-03 01:28:00,
2013-12-02 20:38:00,37.1,19.7,29.96,East,99,2.0,4.0,49,0.00,CLR,,0.00,WeatherDisplay:10.37,2013-12-03 01:38:00,
2013-12-02 20:48:00,36.5,19.6,29.96,SE,128,0.0,4.0,50,0.00,CLR,,0.00,WeatherDisplay:10.37,2013-12-03 01:48:00,
2013-12-02 20:58:00,36.5,20.1,29.93,East,95,1.0,5.0,51,0.00,CLR,,0.00,WeatherDisplay:10.37,2013-12-03 01:58:00,
2013-12-02 21:08:00,35.8,19.4,29.96,East,96,0.0,3.0,51,0.00,CLR,,0.00,WeatherDisplay:10.37,2013-12-03 02:08:00,
2013-12-02 21:18:00,35.6,19.7,29.96,ESE,102,0.0,3.0,52,0.00,CLR,,0.00,WeatherDisplay:10.37,2013-12-03 02:18:00,
2013-12-02 21:28:00,35.4,20.0,29.96,West,279,0.0,0.0,53,0.00,CLR,,0.00,WeatherDisplay:10.37,2013-12-03 02:28:00,
2013-12-02 21:38:00,36.0,20.5,29.96,SSW,203,3.0,4.0,53,0.00,CLR,,0.00,WeatherDisplay:10.37,2013-12-03 02:38:00,
2013-12-02 21:48:00,36.9,21.7,29.96,ESE,109,2.0,4.0,54,0.00,CLR,,0.00,WeatherDisplay:10.37,2013-12-03 02:48:00,
2013-12-02 21:58:00,37.0,22.4,29.96,East,100,2.0,3.0,55,0.00,CLR,,0.00,WeatherDisplay:10.37,2013-12-03 02:58:00,
2013-12-02 22:08:00,37.2,22.5,29.96,East,101,1.0,5.0,55,0.00,CLR,,0.00,WeatherDisplay:10.37,2013-12-03 03:08:00,
2013-12-02 22:18:00,37.8,23.5,29.96,ESE,105,3.0,4.0,56,0.00,CLR,,0.00,WeatherDisplay:10.37,2013-12-03 03:18:00,
2013-12-02 22:28:00,38.3,24.0,29.96,ESE,104,0.0,4.0,56,0.00,CLR,,0.00,WeatherDisplay:10.37,2013-12-03 03:28:00,
2013-12-02 22:38:00,38.4,24.1,29.96,West,275,0.0,4.0,56,0.00,CLR,,0.00,WeatherDisplay:10.37,2013-12-03 03:38:00,
2013-12-02 22:48:00,38.2,23.8,29.96,WSW,254,0.0,3.0,56,0.00,CLR,,0.00,WeatherDisplay:10.37,2013-12-03 03:48:00,
2013-12-02 22:58:00,37.9,23.6,29.96,WSW,255,0.0,0.0,56,0.00,CLR,,0.00,WeatherDisplay:10.37,2013-12-03 03:58:00,
2013-12-02 23:08:00,38.3,24.3,29.96,ESE,108,3.0,5.0,57,0.00,CLR,,0.00,WeatherDisplay:10.37,2013-12-03 04:08:00,
2013-12-02 23:18:00,40.3,26.7,29.96,East,95,0.0,6.0,58,0.00,CLR,,0.00,WeatherDisplay:10.37,2013-12-03 04:18:00,
2013-12-02 23:28:00,40.1,25.6,29.96,East,91,1.0,3.0,56,0.00,CLR,,0.00,WeatherDisplay:10.37,2013-12-03 04:28:00,
2013-12-02 23:38:00,39.4,25.0,29.96,West,266,1.0,4.0,56,0.00,CLR,,0.00,WeatherDisplay:10.37,2013-12-03 04:38:00,
2013-12-02 23:48:00,39.0,24.6,29.96,SW,236,2.0,4.0,56,0.00,CLR,,0.00,WeatherDisplay:10.37,2013-12-03 04:48:00,
2013-12-02 23:58:00,40.8,27.2,29.96,ESE,111,5.0,6.0,58,0.00,CLR,,0.00,WeatherDisplay:10.37,2013-12-03 04:58:00,